TimeCDT,TemperatureF,Dew PointF,Humidity,Sea Level PressureIn,VisibilityMPH,Wind Direction,Wind SpeedMPH,Gust SpeedMPH,PrecipitationIn,Events,Conditions,WindDirDegrees,DateUTC
12:08 AM,62.6,57.2,82,29.94,8.0,SSW,3.5,-,N/A,,Clear,200,2013-08-26 05:08:00
12:33 AM,60.8,57.2,88,29.94,10.0,South,2.3,-,N/A,,Clear,190,2013-08-26 05:33:00
12:58 AM,60.8,55.8,83,29.94,10.0,Calm,Calm,-,N/A,,Clear,0,2013-08-26 05:58:00
1:58 AM,62.2,57.4,84,29.92,10.0,SE,3.5,-,N/A,,Clear,140,2013-08-26 06:58:00
2:58 AM,63.1,58.6,85,29.92,10.0,South,4.6,-,N/A,,Clear,190,2013-08-26 07:58:00
3:58 AM,59.9,56.7,89,29.92,10.0,South,2.3,-,N/A,,Clear,180,2013-08-26 08:58:00
4:58 AM,61.7,57.4,86,29.90,10.0,ESE,2.3,-,N/A,,Clear,120,2013-08-26 09:58:00
5:43 AM,62.6,57.2,82,29.91,9.0,SSW,1.2,-,N/A,,Clear,210,2013-08-26 10:43:00
5:53 AM,60.8,57.2,88,29.91,10.0,South,3.5,-,N/A,,Clear,190,2013-08-26 10:53:00
5:58 AM,59.7,57.6,93,29.91,10.0,South,2.3,-,N/A,,Clear,170,2013-08-26 10:58:00
6:58 AM,60.4,57.7,91,29.92,10.0,SE,1.2,-,N/A,,Clear,130,2013-08-26 11:58:00
7:58 AM,63.9,60.4,89,29.93,8.0,ESE,2.3,-,N/A,,Clear,110,2013-08-26 12:58:00
8:58 AM,68.0,61.0,78,29.91,10.0,East,3.5,-,N/A,,Clear,90,2013-08-26 13:58:00
9:58 AM,69.4,62.8,79,29.92,10.0,South,5.8,-,0.00,Rain-Thunderstorm,Light Rain,180,2013-08-26 14:58:00
10:08 AM,69.8,62.6,78,29.91,10.0,SSE,11.5,-,N/A,Thunderstorm,Light Drizzle,150,2013-08-26 15:08:00
10:28 AM,69.8,64.4,83,29.91,10.0,West,11.5,-,N/A,Thunderstorm,Light Drizzle,280,2013-08-26 15:28:00
10:38 AM,69.8,66.2,88,29.92,10.0,SE,10.4,-,N/A,Rain-Thunderstorm,Light Thunderstorms and Rain,140,2013-08-26 15:38:00
10:51 AM,69.8,66.2,88,29.92,10.0,SSE,13.8,20.7,N/A,Rain-Thunderstorm,Light Rain,160,2013-08-26 15:51:00
10:58 AM,72.0,67.3,85,29.91,10.0,South,18.4,-,0.00,Rain-Thunderstorm,Light Thunderstorms and Rain,170,2013-08-26 15:58:00
11:09 AM,71.6,68.0,88,29.92,8.0,South,16.1,32.2,N/A,Thunderstorm,Light Drizzle,180,2013-08-26 16:09:00
11:46 AM,73.4,66.2,78,29.90,10.0,SSE,10.4,-,N/A,,Scattered Clouds,160,2013-08-26 16:46:00
11:58 AM,75.9,64.4,67,29.92,10.0,SSE,10.4,-,0.00,,Partly Cloudy,150,2013-08-26 16:58:00
12:42 PM,75.2,68.0,78,29.90,10.0,SE,13.8,-,N/A,Thunderstorm,Mostly Cloudy,140,2013-08-26 17:42:00
12:58 PM,74.8,66.4,75,29.91,10.0,SSE,13.8,-,N/A,,Clear,150,2013-08-26 17:58:00
1:58 PM,80.1,66.4,63,29.90,10.0,SSE,15.0,-,0.02,,Mostly Cloudy,150,2013-08-26 18:58:00
2:58 PM,84.9,65.3,52,29.88,10.0,SE,13.8,-,N/A,,Clear,140,2013-08-26 19:58:00
3:58 PM,86.5,64.6,48,29.86,10.0,SSE,17.3,-,N/A,,Clear,150,2013-08-26 20:58:00
4:58 PM,88.2,65.3,47,29.83,10.0,SSE,19.6,-,N/A,,Clear,150,2013-08-26 21:58:00
5:58 PM,87.1,66.4,50,29.83,10.0,South,16.1,-,N/A,,Clear,170,2013-08-26 22:58:00
6:58 PM,81.5,68.0,63,29.85,10.0,South,8.1,-,N/A,,Clear,190,2013-08-26 23:58:00
7:58 PM,79.0,68.5,70,29.84,10.0,SE,5.8,-,N/A,,Clear,140,2013-08-27 00:58:00
8:58 PM,76.1,68.7,78,29.85,10.0,ESE,6.9,-,0.00,,Clear,110,2013-08-27 01:58:00
9:58 PM,73.6,68.4,84,29.87,10.0,SSW,4.6,-,N/A,,Clear,200,2013-08-27 02:58:00
10:22 PM,73.4,66.2,78,29.91,10.0,NNW,23.0,31.1,N/A,,Mostly Cloudy,340,2013-08-27 03:22:00
10:37 PM,73.4,66.2,78,29.88,10.0,NNW,23.0,31.1,N/A,Thunderstorm,Thunderstorm,340,2013-08-27 03:37:00
10:56 PM,71.6,66.2,83,29.88,10.0,NNE,2.3,-,N/A,,Clear,20,2013-08-27 03:56:00
10:58 PM,72.1,65.7,80,29.88,10.0,NNE,2.3,-,N/A,,Clear,20,2013-08-27 03:58:00
11:58 PM,66.7,63.7,90,29.87,10.0,South,5.8,-,N/A,,Clear,180,2013-08-27 04:58:00